Location: Newark
(11.2914°S, 14.4718°E)
Time: 16:08:07
(UTC+00:00)

Vanguard 2 - Pass Details

Date: 25 September 2019
Orbit: 554 x 2937 km, 32.9° (Epoch: 21 October)

Event Time Altitude Azimuth Distance (km) Brightness Sun altitude
Rises 19:43:15 0° 239° (WSW) 5,330 12.6 -41.1°
Reaches altitude 10° 19:46:17 10° 239° (WSW) 4,595 12.1 -41.8°
Maximum altitude 20:00:23 83° 325° (NW) 2,750 10.0 -45.2°
Enters shadow 20:00:59 82° 356° (N) 2,773 10.0 -45.4°
